Location: Newark
(27.9675°N, 86.8869°E)
Time: 20:24:42
(UTC+00:00)

Vanguard 3 - Pass Details

Date: 29 October 2019
Orbit: 508 x 3263 km, 33.4° (Epoch: 20 November)

Event Time Altitude Azimuth Distance (km) Brightness Sun altitude
Rises 16:55:04 0° 280° (W) 3,652 - -69.7°
Reaches altitude 10° 16:58:19 10° 287° (WNW) 2,356 - -70.2°
Maximum altitude 17:03:08 41° 358° (N) 878 - -71.0°
Drops below altitude 10° 17:06:44 10° 70° (ENE) 1,752 - -71.5°
Sets 17:08:49 0° 79° (E) 2,596 - -71.8°
